CW0454 Weather Reports


Display with metric or nautical units.
time (UTC)temp
F
wind
direction
speed
MPH
gust
MPH
rain 1hr
in
rain 24hr
in
rain mn
in
humidity
%
barometer
mb
20260509213400 73 349 1.0 3.0 0.00 0.00 0.00 67 1007.9
20260509212400 72 359 2.0 5.0 0.00 0.00 0.00 68 1007.9
20260509211421 72 38 2.0 6.0 0.00 0.00 0.00 67 1007.8
20260509210400 71 11 3.0 7.0 0.00 0.00 0.00 68 1007.7
20260509205421 71 47 2.0 7.0 0.00 0.00 0.00 68 1007.8
20260509204400 71 37 2.0 6.0 0.00 0.00 0.00 68 1007.7
20260509203400 71 33 3.0 5.0 0.00 0.00 0.00 69 1007.6
20260509202400 71 353 3.0 5.0 0.00 0.00 0.00 70 1007.9
20260509200401 70 34 4.0 7.0 0.00 0.00 0.00 70 1008.3
20260509195400 69 24 3.0 5.0 0.00 0.00 0.00 74 1008.3
20260509194401 68 30 1.0 5.0 0.00 0.00 0.00 76 1008.5
20260509193422 67 44 2.0 5.0 0.00 0.00 0.00 76 1008.6
20260509192400 66 36 1.0 8.0 0.00 0.00 0.00 80 1008.6
20260509191400 66 30 1.0 3.0 0.00 0.00 0.00 82 1008.8
20260509190401 64 28 1.0 3.0 0.00 0.00 0.00 81 1008.9
20260509185401 65 28 1.0 3.0 0.00 0.00 0.00 78 1009.1
20260509184400 65 28 1.0 2.0 0.00 0.00 0.00 77 1009.0
20260509183401 65 28 0.0 4.0 0.00 0.00 0.00 76 1009.1
20260509182400 65 29 1.0 4.0 0.00 0.00 0.00 77 1009.2
20260509181400 64 25 1.0 2.0 0.00 0.00 0.00 77 1009.5
20260509180400 64 26 0.0 2.0 0.00 0.00 0.00 77 1009.6
20260509175401 64 25 1.0 2.0 0.00 0.00 0.00 76 1009.6
20260509174422 64 26 0.0 1.0 0.00 0.00 0.00 76 1009.6
20260509173422 64 26 0.0 2.0 0.00 0.00 0.00 75 1009.7
20260509172400 64 26 0.0 2.0 0.00 0.00 0.00 75 1009.7
20260509171401 64 26 1.0 3.0 0.00 0.00 0.00 74 1009.7
20260509170401 65 21 2.0 5.0 0.00 0.00 0.00 74 1009.7
20260509165401 65 359 2.0 5.0 0.00 0.00 0.00 75 1009.7
20260509164402 65 38 2.0 5.0 0.00 0.00 0.00 74 1009.8
20260509163401 65 37 1.0 4.0 0.00 0.00 0.00 73 1009.8
20260509161401 66 74 1.0 3.0 0.00 0.00 0.00 70 1009.9
20260509160401 67 14 2.0 6.0 0.00 0.00 0.00 69 1010.1
20260509155401 68 268 1.0 6.0 0.00 0.00 0.00 67 1010.0
20260509154401 69 47 3.0 8.0 0.00 0.00 0.00 66 1009.9
20260509153401 69 290 3.0 6.0 0.00 0.00 0.00 67 1010.0
20260509152401 68 24 2.0 5.0 0.00 0.00 0.00 68 1010.2
20260509151402 67 264 2.0 3.0 0.00 0.00 0.00 71 1010.3
20260509150402 65 239 3.0 5.0 0.00 0.00 0.00 70 1010.6
20260509145401 65 202 1.0 4.0 0.00 0.00 0.00 71 1010.9
20260509144401 65 243 1.0 4.0 0.00 0.00 0.00 71 1010.9
20260509143401 65 121 0.0 4.0 0.00 0.00 0.00 71 1010.9
20260509142401 64 195 1.0 5.0 0.00 0.00 0.00 71 1010.8
20260509141423 64 259 2.0 4.0 0.00 0.00 0.00 72 1010.8
20260509140401 64 230 2.0 5.0 0.00 0.00 0.00 72 1010.9
20260509135401 63 278 2.0 6.0 0.00 0.00 0.00 72 1010.8
20260509134401 63 161 3.0 7.0 0.00 0.00 0.00 72 1010.8
20260509133401 63 177 3.0 8.0 0.00 0.00 0.00 72 1010.8
20260509132422 63 188 3.0 8.0 0.00 0.00 0.00 73 1010.8
20260509131401 62 135 2.0 11.0 0.00 0.00 0.00 73 1010.7
20260509130423 62 148 5.0 10.0 0.00 0.00 0.00 73 1010.7
20260509125422 61 123 4.0 8.0 0.00 0.00 0.00 74 1010.6
20260509124402 61 137 2.0 10.0 0.00 0.00 0.00 74 1010.6
20260509123444 61 136 4.0 14.0 0.00 0.00 0.00 74 1010.6
20260509122422 61 135 6.0 13.0 0.00 0.00 0.00 74 1010.6
20260509121402 60 125 5.0 12.0 0.00 0.00 0.00 74 1010.7
20260509120405 60 117 2.0 11.0 0.00 0.00 0.00 74 1010.7
20260509115401 60 120 4.0 10.0 0.00 0.00 0.00 75 1010.7
20260509114402 59 100 5.0 12.0 0.00 0.00 0.00 74 1010.6
20260509113402 59 110 3.0 11.0 0.00 0.00 0.00 74 1010.6
20260509112402 59 94 1.0 9.0 0.00 0.00 0.00 75 1010.5
20260509111423 59 124 5.0 12.0 0.00 0.00 0.00 74 1010.5
20260509110401 59 129 2.0 8.0 0.00 0.00 0.00 73 1010.5
20260509105402 58 102 1.0 11.0 0.00 0.00 0.00 73 1010.3
20260509104401 58 158 1.0 11.0 0.00 0.00 0.00 72 1010.4
20260509103402 58 137 1.0 7.0 0.00 0.00 0.00 71 1010.3
20260509102402 58 109 3.0 7.0 0.00 0.00 0.00 70 1010.3
20260509101402 58 108 2.0 7.0 0.00 0.00 0.00 70 1010.2
20260509100402 58 126 2.0 7.0 0.00 0.00 0.00 69 1010.1
20260509095402 58 101 2.0 5.0 0.00 0.00 0.00 69 1010.2
20260509094402 58 126 2.0 7.0 0.00 0.00 0.00 69 1010.3
20260509093402 58 110 2.0 7.0 0.00 0.00 0.00 69 1010.3
20260509092402 58 102 2.0 7.0 0.00 0.00 0.00 69 1010.3
20260509091402 58 137 2.0 7.0 0.00 0.00 0.00 69 1010.3
20260509090402 58 131 2.0 8.0 0.00 0.00 0.00 69 1010.3
20260509085423 59 126 2.0 7.0 0.00 0.00 0.00 68 1010.4
20260509084403 59 130 4.0 8.0 0.00 0.00 0.00 69 1010.4
20260509083402 59 131 3.0 6.0 0.00 0.00 0.00 69 1010.6
20260509082423 59 126 1.0 7.0 0.00 0.00 0.00 69 1010.8
20260509081403 59 131 1.0 7.0 0.00 0.00 0.00 70 1010.8
20260509080402 58 111 2.0 7.0 0.00 0.00 0.00 69 1010.8
20260509075403 58 102 1.0 8.0 0.00 0.00 0.00 69 1010.9
20260509074402 58 132 1.0 9.0 0.00 0.00 0.00 69 1010.8
20260509073402 58 113 1.0 7.0 0.00 0.00 0.00 70 1010.8
20260509072402 58 77 1.0 8.0 0.00 0.00 0.00 71 1010.7
20260509071402 58 110 1.0 5.0 0.00 0.00 0.00 72 1010.8
20260509070402 57 95 1.0 7.0 0.00 0.00 0.00 72 1010.9
20260509065423 57 132 2.0 7.0 0.00 0.00 0.00 73 1010.9
20260509064403 57 126 2.0 4.0 0.00 0.00 0.00 74 1011.0
20260509063402 56 129 2.0 8.0 0.00 0.00 0.00 74 1011.1
20260509062403 57 107 1.0 5.0 0.00 0.00 0.00 74 1011.1
20260509060359 57 133 2.0 5.0 0.00 0.00 0.00 73 1011.4
20260509055358 57 139 2.0 7.0 0.00 0.00 0.00 73 1011.4
20260509054359 57 126 2.0 8.0 0.00 0.00 0.00 72 1011.4
20260509053358 57 106 1.0 7.0 0.00 0.00 0.00 72 1011.4
20260509052359 57 110 2.0 8.0 0.00 0.00 0.00 72 1011.4
20260509051359 57 126 3.0 10.0 0.00 0.00 0.00 72 1011.3
20260509050358 57 115 4.0 10.0 0.00 0.00 0.00 72 1011.4
20260509045359 57 115 3.0 9.0 0.00 0.00 0.00 72 1011.5
20260509044359 57 111 3.0 11.0 0.00 0.00 0.00 72 1011.5
20260509043359 57 116 3.0 8.0 0.00 0.00 0.00 72 1011.5
20260509042359 57 135 3.0 7.0 0.00 0.00 0.00 73 1011.5
20260509041359 58 109 2.0 6.0 0.00 0.00 0.00 73 1011.5
20260509040359 58 121 3.0 8.0 0.00 0.00 0.00 74 1011.6
20260509035359 58 115 3.0 10.0 0.00 0.00 0.00 75 1011.7
20260509034359 58 121 3.0 10.0 0.00 0.00 0.00 76 1011.6
20260509033359 57 110 2.0 7.0 0.00 0.00 0.00 77 1011.5
20260509032359 57 123 2.0 6.0 0.00 0.00 0.00 78 1011.9
20260509031359 58 118 2.0 8.0 0.00 0.00 0.00 78 1011.8
20260509030400 58 126 2.0 9.0 0.00 0.00 0.00 78 1011.8
20260509025400 58 126 3.0 8.0 0.00 0.00 0.00 78 1011.8
20260509024359 58 104 2.0 6.0 0.00 0.00 0.00 78 1011.9
20260509023359 59 117 3.0 7.0 0.00 0.00 0.00 77 1011.9
20260509022400 59 118 2.0 6.0 0.00 0.00 0.00 77 1012.0
20260509021359 60 132 2.0 7.0 0.00 0.00 0.00 76 1011.8
20260509020359 60 131 3.0 7.0 0.00 0.00 0.00 75 1011.6
20260509015400 61 123 3.0 7.0 0.00 0.00 0.00 73 1011.7
20260509014400 61 120 2.0 6.0 0.00 0.00 0.00 72 1011.7
20260509013359 61 96 1.0 8.0 0.00 0.00 0.00 71 1011.8
20260509012401 61 138 2.0 9.0 0.00 0.00 0.00 70 1011.8
20260509011359 61 105 2.0 6.0 0.00 0.00 0.00 69 1011.6
20260509010400 62 124 2.0 6.0 0.00 0.00 0.00 68 1011.5
20260509005359 62 117 2.0 6.0 0.00 0.00 0.00 67 1011.4
20260509004400 62 119 3.0 8.0 0.00 0.00 0.00 66 1011.3
20260509003359 62 134 2.0 9.0 0.00 0.00 0.00 65 1011.2
20260509002359 62 123 3.0 7.0 0.00 0.00 0.00 65 1011.2
20260509001400 62 135 3.0 8.0 0.00 0.00 0.00 63 1011.1
20260509000400 63 119 3.0 7.0 0.00 0.00 0.00 63 1011.1
20260508235359 63 117 3.0 10.0 0.00 0.00 0.00 61 1010.9
20260508234400 63 107 3.0 11.0 0.00 0.00 0.00 60 1010.8
20260508233400 64 104 3.0 10.0 0.00 0.00 0.00 59 1010.9
20260508232420 65 113 3.0 10.0 0.00 0.00 0.00 58 1010.9
20260508231421 66 119 5.0 11.0 0.00 0.00 0.00 56 1010.7
20260508230420 67 109 2.0 6.0 0.00 0.00 0.00 53 1010.4
20260508225421 67 121 1.0 4.0 0.00 0.00 0.00 45 1010.4
20260508224359 68 126 2.0 5.0 0.00 0.00 0.00 45 1010.3
20260508223400 68 142 1.0 3.0 0.00 0.00 0.00 43 1010.4
20260508222401 68 210 0.0 3.0 0.00 0.00 0.00 44 1010.4
20260508221400 69 167 2.0 5.0 0.00 0.00 0.00 39 1010.5
20260508220400 69 160 1.0 5.0 0.00 0.00 0.00 41 1010.5
20260508215401 69 183 2.0 7.0 0.00 0.00 0.00 39 1010.4
20260508214400 69 206 2.0 7.0 0.00 0.00 0.00 38 1010.3